Theta_e
313 317 318 317 317 316 319 318 324 320 317 317 319 318 313 311 312 313 311 310 309 307 304 304 303 303 304 304 305 306 308 309 311 311 312 311 311 311 311 309 310 310 311 311
315 316 315 315 316 316 318 319 320 320 316 315 316 317 313 311 312 313 312 310 308 306 305 303 302 302 303 303 303 304 305 307 309 310 310 310 310 308 309 309 309 309 309 309
314 314 314 313 315 316 316 318 320 321 318 313 316 318 315 311 309 309 310 309 308 307 305 303 301 300 300 300 300 300 302 304 306 309 309 309 309 309 307 306 306 306 306 306
313 312 314 314 315 315 317 314 318 316 318 323 316 328 319 314 311 310 309 308 307 305 302 301 300 299 298 297 299 299 301 302 305 305 307 307 307 305 302 302 302 303 304 304
313 313 314 315 314 314 316 314 317 319 319 319 317 321 322 313 314 311 310 308 307 304 302 300 298 296 296 296 297 297 299 301 303 304 304 303 302 301 300 300 300 299 300 299
312 308 312 314 312 313 313 314 315 318 319 325 321 320 323 316 315 314 310 308 306 302 300 297 296 294 294 295 296 296 297 300 300 299 299 299 299 298 298 297 298 297 296 295
312 311 310 310 312 312 313 314 321 323 324 322 315 320 321 315 311 312 311 308 305 302 299 297 296 295 294 294 294 294 294 294 294 294 296 295 295 294 294 294 294 294 294 292
316 317 312 310 313 313 313 313 318 320 320 318 312 318 318 307 304 305 308 307 303 299 297 295 294 293 291 291 291 291 291 290 290 291 291 291 291 290 290 290 290 290 289 289
314 316 309 309 311 313 315 316 313 316 312 318 316 313 312 304 303 305 305 302 300 297 295 294 292 290 289 289 289 289 288 287 287 288 287 287 287 287 286 286 286 286 286 286
311 315 309 310 310 310 315 315 317 319 321 319 317 316 316 309 307 303 301 301 299 296 294 292 290 288 287 286 285 285 285 285 285 285 285 285 285 284 284 284 284 284 284 285
309 311 310 310 312 315 315 317 316 316 316 319 319 317 312 310 308 304 302 301 298 295 293 292 289 287 285 285 284 283 283 283 283 283 283 283 283 283 282 282 282 283 283 283
308 311 314 313 309 308 314 314 316 318 317 316 316 316 304 304 304 304 302 299 296 295 293 290 287 285 284 284 283 282 282 282 282 282 282 282 281 281 281 281 281 281 281 282
308 314 316 313 311 307 311 313 315 316 313 318 319 318 302 302 303 302 301 298 295 294 292 289 286 285 284 283 282 282 281 281 281 281 281 280 280 280 280 280 280 280 280 281
308 311 312 314 311 313 312 312 313 317 320 319 319 317 308 304 303 301 299 297 295 293 291 288 286 285 284 283 282 281 280 280 280 280 280 279 279 279 279 279 279 279 279 279
310 312 311 310 309 310 311 313 313 316 317 319 317 316 314 309 304 302 299 296 294 292 291 288 287 285 283 282 281 280 280 280 279 279 279 279 279 278 278 278 278 278 278 278
311 313 310 309 310 309 311 311 312 313 315 316 315 314 305 304 304 300 298 296 295 293 291 289 286 284 283 282 281 280 280 279 279 279 279 278 278 278 278 278 277 277 277 277
311 313 311 314 311 310 311 310 311 312 312 313 316 314 302 302 302 301 299 297 296 295 292 289 287 285 283 282 281 280 279 279 279 278 278 277 277 277 277 277 277 277 276 276
309 311 313 314 312 314 311 308 308 310 310 310 311 311 309 308 303 302 299 297 296 294 292 289 287 284 283 282 281 280 279 278 278 278 277 277 277 276 276 276 276 276 276 276
310 311 314 315 315 311 310 306 307 309 309 309 310 309 308 299 299 301 299 298 297 294 291 288 285 284 283 281 280 279 278 278 277 277 277 276 276 276 276 276 276 275 275 275
309 310 312 315 316 317 311 307 304 308 311 309 308 308 309 300 306 310 298 296 296 293 290 287 285 283 282 280 279 278 278 277 277 276 276 276 276 276 276 276 275 275 275 275
308 311 312 314 315 315 307 302 307 312 311 308 307 307 305 304 308 303 297 296 295 292 289 286 283 282 281 279 278 278 277 277 276 276 276 276 276 276 276 275 275 275 274 274
310 312 313 313 315 315 301 304 310 310 301 301 302 306 304 303 298 297 295 294 292 289 286 284 282 282 280 279 278 278 277 277 277 276 276 276 275 275 275 275 274 274 274 273
305 309 313 313 313 302 303 307 304 298 301 299 299 300 302 298 295 295 294 293 290 287 285 283 282 281 279 278 278 277 277 277 276 275 275 275 275 274 274 274 274 273 273 273
299 292 298 306 307 301 299 297 296 296 298 296 296 297 296 296 294 293 292 290 287 285 283 283 281 280 278 278 278 278 279 277 277 275 275 274 274 274 273 273 273 273 273 273
301 295 297 298 300 295 295 299 299 295 295 294 293 294 294 293 291 290 288 287 285 284 282 282 281 280 279 277 277 278 279 278 276 275 274 273 273 273 273 273 273 273 273 273
293 301 301 304 301 299 301 298 295 295 294 294 292 290 290 291 289 288 286 285 284 283 282 281 281 280 278 277 277 278 278 278 277 274 273 273 272 272 272 272 272 272 272 272
Wind_Speed
4 7 9 11 9 2 5 5 7 5 3 7 15 12 9 7 7 8 8 6 6 5 5 7 9 10 11 11 10 9 8 6 5 5 6 8 10 12 12 14 13 13 13 14
5 14 9 9 9 5 7 3 5 6 2 2 5 12 9 10 8 8 9 8 8 6 4 6 7 9 11 11 10 9 9 9 8 7 9 8 10 13 17 13 14 14 14 14
12 1 11 9 9 9 6 10 9 4 9 1 2 8 8 8 8 9 9 10 9 9 6 5 6 7 8 10 9 9 9 9 9 9 10 10 9 8 10 12 13 15 14 16
10 4 12 9 13 13 10 7 11 8 10 4 8 4 8 14 14 14 14 14 12 10 7 6 6 6 7 7 8 7 8 8 9 8 10 10 9 9 7 9 11 13 15 17
8 12 12 12 13 12 6 6 13 15 9 4 5 5 5 7 14 17 18 17 14 12 11 9 7 5 5 6 7 6 7 9 10 10 11 9 11 9 9 8 9 10 13 15
5 1 7 9 8 13 6 5 5 3 6 7 14 8 8 8 11 19 19 18 16 14 12 12 9 7 5 6 7 5 7 10 9 8 10 12 11 9 8 9 8 10 11 13
7 4 2 3 8 5 11 10 3 4 5 6 1 11 13 6 8 9 22 21 19 15 13 12 11 8 6 6 4 6 8 8 6 8 10 12 12 11 11 10 10 10 11 13
14 10 11 8 11 9 19 17 6 5 4 3 3 7 5 1 1 3 12 18 16 14 11 10 11 10 8 8 7 8 9 7 8 9 11 12 12 12 13 12 11 12 13 13
14 15 2 6 4 13 11 13 10 1 0 3 5 4 6 4 2 7 13 16 16 13 11 10 11 9 8 8 9 9 10 10 10 13 14 15 15 15 14 13 13 13 12 12
5 8 3 3 3 1 6 13 8 5 4 6 6 6 9 7 13 11 15 17 16 14 12 10 10 10 9 9 9 11 11 12 12 14 15 15 16 16 15 15 15 14 14 14
4 3 3 5 13 16 7 7 7 4 9 3 3 4 1 2 10 18 17 16 16 14 13 12 12 13 12 12 11 13 13 13 14 15 16 17 16 16 15 15 14 14 14 14
5 2 5 12 1 5 17 20 20 10 6 6 9 9 4 2 3 12 15 16 16 15 13 15 16 14 14 14 13 13 13 14 15 15 15 16 16 16 15 15 14 13 14 14
9 5 4 2 5 3 8 12 16 14 2 13 9 6 2 2 5 11 15 16 15 15 14 14 16 17 17 16 15 14 13 14 15 16 15 15 15 15 15 14 14 14 14 14
6 9 15 16 7 8 10 14 17 18 11 14 22 19 7 6 8 12 15 17 17 16 16 15 16 19 18 17 16 15 14 14 15 16 15 14 14 14 13 13 14 14 13 14
5 14 18 12 7 5 8 16 20 23 31 18 21 24 22 13 15 16 16 18 19 18 18 17 16 20 20 18 17 16 15 15 15 15 14 14 14 13 13 13 13 13 13 13
4 11 5 13 13 4 5 11 21 28 27 30 23 25 2 3 8 15 19 20 21 21 20 19 20 23 23 22 21 19 18 17 16 15 14 14 14 14 13 13 13 13 13 12
8 7 7 17 11 5 8 27 21 20 23 24 25 28 7 8 14 18 20 23 24 23 23 22 23 28 26 25 23 22 20 18 16 16 15 15 14 14 13 13 12 12 11 10
5 15 11 12 7 11 22 10 26 22 19 23 26 14 16 17 16 12 19 23 22 23 23 23 29 30 28 25 23 21 20 19 18 16 16 15 14 14 14 13 12 11 9 9
16 10 6 8 14 10 14 10 11 12 24 22 27 23 19 3 5 12 20 23 25 25 28 30 31 32 30 28 25 23 21 19 18 18 17 16 16 16 15 13 12 10 9 8
19 19 12 6 8 10 34 12 7 6 19 24 25 23 21 14 10 20 22 23 20 29 33 34 34 32 31 29 28 25 23 21 20 19 19 18 18 16 15 14 12 11 8 9
14 14 19 17 10 8 5 5 12 12 13 8 20 22 20 17 25 3 20 19 28 30 33 35 36 34 33 32 31 26 23 22 21 22 22 20 19 17 16 14 12 11 10 10
10 11 16 19 17 22 8 12 24 17 1 1 2 11 23 22 2 7 18 22 24 30 37 38 35 32 32 35 33 26 24 23 25 24 23 21 20 18 16 15 13 12 11 10
7 5 8 12 18 2 21 11 12 4 4 4 4 5 13 11 8 14 16 20 21 32 34 35 34 32 30 34 33 28 27 29 28 26 24 22 20 18 17 15 14 13 12 10
7 2 2 6 7 8 16 5 5 7 6 3 4 7 12 12 13 12 16 17 18 30 32 35 34 33 31 34 33 33 34 32 29 27 25 22 21 19 18 15 14 13 12 10
4 7 3 6 12 5 10 16 10 10 5 4 4 6 12 13 13 14 15 17 21 28 31 35 34 33 33 34 33 37 35 33 30 28 26 23 21 20 19 16 15 14 13 12
6 13 7 7 5 4 9 8 6 10 10 9 10 7 7 12 15 13 14 19 26 28 31 31 30 31 32 35 38 39 36 34 32 30 26 23 21 21 18 16 14 16 14 14
Wind_Direction
156 200 199 190 208 331 181 191 187 200 196 218 224 227 203 183 190 175 164 162 135 108 87 74 68 71 73 68 68 67 67 77 123 123 109 86 82 80 71 63 62 60 57 53
160 223 204 201 202 195 190 202 195 175 128 204 203 233 194 195 208 203 178 190 164 149 126 85 71 69 73 68 58 57 58 61 83 103 104 107 94 84 80 71 63 59 55 54
199 150 187 180 200 205 211 221 194 234 194 2 139 247 214 215 214 202 197 200 186 169 163 127 84 69 72 68 58 54 61 67 74 95 109 110 106 94 74 63 58 54 54 51
219 168 171 190 214 209 234 213 192 149 171 221 201 267 216 200 204 209 200 199 190 174 164 149 127 91 79 78 84 77 80 86 93 93 100 105 105 98 75 74 69 60 56 56
177 182 181 202 211 199 213 173 195 208 227 270 195 248 218 191 214 213 207 200 192 183 170 157 142 117 87 92 96 87 96 96 96 104 114 107 102 99 99 90 76 65 53 51
177 78 199 213 196 202 147 115 113 119 238 252 226 210 233 193 213 216 202 199 186 183 165 152 145 149 124 92 86 106 103 96 107 105 102 101 99 97 90 75 67 56 49 43
189 188 211 194 177 173 190 194 197 211 205 244 235 209 244 202 216 219 197 192 184 180 170 160 160 144 140 115 129 109 97 97 108 110 102 101 100 94 84 77 73 68 60 51
196 211 185 176 208 186 200 208 206 230 215 225 147 229 243 12 61 252 187 183 173 172 172 162 156 159 141 144 136 117 118 122 108 107 102 101 100 93 87 83 84 80 71 61
203 212 183 186 158 183 189 216 238 252 45 272 226 251 240 176 174 164 164 173 176 171 168 161 151 152 156 147 135 133 137 125 118 113 106 98 96 97 95 93 90 86 83 75
217 210 200 154 160 183 224 171 191 221 244 244 238 254 249 221 209 188 185 185 177 173 166 156 157 153 154 145 149 141 133 127 122 117 113 110 108 105 102 99 94 92 86 80
200 258 138 156 206 194 176 194 216 241 230 254 293 237 259 278 192 193 193 189 179 172 168 165 165 164 159 160 155 137 136 133 125 123 120 119 114 111 108 102 98 95 91 83
193 213 186 207 38 291 228 216 208 219 210 248 267 255 155 185 199 194 188 182 177 176 172 167 168 162 163 163 152 145 144 139 133 130 126 120 118 115 111 105 101 99 93 87
172 207 205 221 231 200 225 211 220 226 314 232 228 245 23 238 206 187 181 180 177 173 170 168 166 175 173 164 157 154 149 139 139 136 132 126 122 120 114 109 104 99 95 89
177 221 221 222 231 176 210 213 217 210 222 227 235 252 226 221 200 181 185 181 178 176 177 177 177 177 172 169 161 157 149 148 145 141 137 130 127 125 120 114 108 104 99 92
206 230 231 248 264 201 226 207 205 211 227 225 248 237 243 216 209 199 184 180 180 183 184 185 180 176 172 167 164 161 156 154 152 145 140 136 135 130 126 120 113 109 102 95
236 248 217 244 219 209 240 230 215 221 225 239 244 256 332 322 166 179 187 185 191 189 189 186 182 178 176 173 171 167 163 159 157 150 146 143 140 138 132 127 120 112 106 101
202 224 214 247 222 187 263 232 221 230 228 233 234 244 178 204 208 200 189 191 195 192 186 185 183 182 180 177 173 170 165 162 158 154 152 150 148 144 140 135 130 122 115 112
189 218 218 241 155 216 241 221 220 221 227 226 242 234 219 228 211 203 200 191 191 187 185 184 182 181 181 175 174 167 166 165 162 159 157 157 154 149 147 144 141 137 130 122
213 196 230 230 223 246 267 201 195 201 243 227 234 227 227 123 128 233 201 200 196 186 180 179 177 174 174 174 171 167 166 166 167 167 165 164 162 159 157 155 151 146 141 133
214 215 209 195 233 225 241 204 155 116 264 226 217 224 205 151 214 239 187 194 188 179 177 173 172 171 171 174 170 169 170 171 174 174 172 170 170 168 165 163 160 155 149 147
205 210 218 218 227 255 197 143 136 180 249 155 206 216 181 199 220 133 170 178 179 173 170 168 168 171 171 169 170 172 173 179 177 175 174 173 172 172 172 169 165 162 161 157
217 208 215 216 220 237 147 152 178 217 328 195 225 204 198 213 57 151 165 164 166 166 166 168 167 171 171 173 172 171 178 178 178 177 177 177 177 176 175 175 172 172 169 166
239 253 228 205 214 145 176 195 213 155 161 199 219 219 195 174 164 157 159 163 166 165 165 167 167 164 170 176 178 173 179 179 178 179 180 181 181 183 183 182 181 179 179 177
241 80 226 293 203 207 203 227 209 178 189 197 224 187 169 165 157 155 154 158 161 164 166 166 163 167 170 177 181 184 184 183 182 182 183 184 186 188 190 192 195 193 190 185
185 163 184 273 285 327 267 228 203 187 174 171 165 174 170 152 160 157 158 160 163 164 165 168 169 171 173 174 178 189 187 185 184 187 187 188 191 194 197 201 205 205 207 200
198 227 222 252 207 249 300 288 203 175 185 181 163 157 166 161 157 159 162 164 163 165 167 169 172 169 170 174 183 189 190 189 188 189 190 193 194 197 201 205 211 215 217 217